| time (UTC) | temp C | wind direction | speed KPH | gust KPH | rain 1hr cm | rain 24hr cm | rain mn cm | humidity % | barometer mb |
| 20260505184220 | 12 | 356 | 8.0 | 17.7 | 0.00 | 0.00 | 0.00 | 60 | 1012.0 |
| 20260505183003 | 13 | 357 | 6.4 | 14.5 | 0.00 | 0.00 | 0.00 | 59 | 1012.0 |
| 20260505182003 | 13 | 1 | 8.0 | 16.1 | 0.00 | 0.00 | 0.00 | 57 | 1011.9 |
| 20260505181003 | 13 | 358 | 8.0 | 17.7 | 0.00 | 0.00 | 0.00 | 58 | 1012.1 |
| 20260505180003 | 13 | 359 | 8.0 | 16.1 | 0.00 | 0.00 | 0.00 | 58 | 1012.1 |
| 20260505175003 | 14 | 352 | 6.4 | 14.5 | 0.00 | 0.00 | 0.00 | 57 | 1012.3 |
| 20260505174003 | 13 | 354 | 8.0 | 16.1 | 0.00 | 0.00 | 0.00 | 57 | 1012.3 |
| 20260505173003 | 13 | 353 | 6.4 | 17.7 | 0.00 | 0.00 | 0.00 | 55 | 1012.0 |
| 20260505172003 | 14 | 355 | 6.4 | 16.1 | 0.00 | 0.00 | 0.00 | 54 | 1012.0 |
| 20260505171003 | 13 | 358 | 6.4 | 16.1 | 0.00 | 0.00 | 0.00 | 55 | 1012.4 |
| 20260505170003 | 13 | 355 | 6.4 | 14.5 | 0.00 | 0.00 | 0.00 | 55 | 1012.2 |
| 20260505165003 | 13 | 355 | 8.0 | 16.1 | 0.00 | 0.00 | 0.00 | 54 | 1012.1 |
| 20260505164003 | 14 | 8 | 9.7 | 20.9 | 0.00 | 0.00 | 0.00 | 55 | 1012.2 |
| 20260505163217 | 14 | 357 | 8.0 | 22.5 | 0.00 | 0.00 | 0.00 | 54 | 1012.2 |
| 20260505162003 | 15 | 347 | 6.4 | 12.9 | 0.00 | 0.00 | 0.00 | 54 | 1012.1 |
| 20260505161003 | 14 | 1 | 8.0 | 20.9 | 0.00 | 0.00 | 0.00 | 56 | 1012.1 |
| 20260505153003 | 14 | 356 | 9.7 | 17.7 | 0.00 | 0.00 | 0.00 | 56 | 1012.3 |
| 20260505152003 | 14 | 347 | 9.7 | 22.5 | 0.00 | 0.00 | 0.00 | 56 | 1012.3 |
| 20260505151003 | 14 | 352 | 11.3 | 22.5 | 0.00 | 0.00 | 0.00 | 57 | 1012.1 |
| 20260505124003 | 15 | 4 | 8.0 | 14.5 | 0.00 | 0.00 | 0.00 | 51 | 1012.7 |
| 20260505123003 | 15 | 8 | 8.0 | 20.9 | 0.00 | 0.00 | 0.00 | 49 | 1012.8 |
| 20260505122003 | 14 | 9 | 8.0 | 20.9 | 0.00 | 0.00 | 0.00 | 51 | 1012.7 |
| 20260505121003 | 15 | 359 | 8.0 | 17.7 | 0.00 | 0.00 | 0.00 | 50 | 1012.8 |
| 20260505120003 | 13 | 10 | 9.7 | 29.0 | 0.00 | 0.00 | 0.00 | 52 | 1012.8 |
| 20260505115003 | 15 | 1 | 8.0 | 16.1 | 0.00 | 0.00 | 0.00 | 53 | 1012.5 |
| 20260505114003 | 15 | 7 | 9.7 | 20.9 | 0.00 | 0.00 | 0.00 | 49 | 1012.5 |
| 20260505113003 | 15 | 3 | 8.0 | 17.7 | 0.00 | 0.00 | 0.00 | 50 | 1012.7 |
| 20260505112003 | 15 | 6 | 8.0 | 17.7 | 0.00 | 0.00 | 0.00 | 51 | 1012.9 |
| 20260505111003 | 15 | 8 | 9.7 | 20.9 | 0.00 | 0.00 | 0.00 | 52 | 1012.9 |
| 20260505102003 | 14 | 3 | 8.0 | 16.1 | 0.00 | 0.00 | 0.00 | 55 | 1013.0 |
| 20260505101218 | 13 | 355 | 8.0 | 17.7 | 0.00 | 0.00 | 0.00 | 58 | 1013.1 |
| 20260505100003 | 13 | 357 | 8.0 | 17.7 | 0.00 | 0.00 | 0.00 | 55 | 1013.1 |
| 20260505095003 | 14 | 354 | 9.7 | 22.5 | 0.00 | 0.00 | 0.00 | 54 | 1013.0 |
| 20260505094003 | 14 | 5 | 8.0 | 22.5 | 0.00 | 0.00 | 0.00 | 56 | 1013.2 |
| 20260505093003 | 13 | 11 | 9.7 | 17.7 | 0.00 | 0.00 | 0.00 | 58 | 1013.1 |
| 20260505092003 | 13 | 18 | 11.3 | 25.7 | 0.00 | 0.00 | 0.00 | 59 | 1013.2 |
| 20260505091003 | 13 | 14 | 9.7 | 20.9 | 0.00 | 0.00 | 0.00 | 57 | 1013.3 |
| 20260505090003 | 13 | 360 | 8.0 | 16.1 | 0.00 | 0.00 | 0.00 | 56 | 1013.2 |
| 20260505085003 | 13 | 4 | 9.7 | 22.5 | 0.00 | 0.00 | 0.00 | 58 | 1013.4 |
| 20260505084003 | 13 | 7 | 8.0 | 17.7 | 0.00 | 0.00 | 0.00 | 60 | 1013.4 |
| 20260505083003 | 13 | 2 | 6.4 | 12.9 | 0.00 | 0.00 | 0.00 | 63 | 1013.5 |
| 20260505082003 | 12 | 6 | 6.4 | 17.7 | 0.00 | 0.00 | 0.00 | 66 | 1013.4 |
| 20260505081003 | 11 | 12 | 6.4 | 20.9 | 0.00 | 0.00 | 0.00 | 67 | 1013.5 |
| 20260505080003 | 11 | 1 | 3.2 | 6.4 | 0.00 | 0.00 | 0.00 | 70 | 1013.5 |
| 20260505075003 | 11 | 353 | 6.4 | 12.9 | 0.00 | 0.00 | 0.00 | 70 | 1013.4 |
| 20260505074003 | 11 | 1 | 6.4 | 14.5 | 0.00 | 0.00 | 0.00 | 70 | 1013.5 |
| 20260505073218 | 11 | 355 | 6.4 | 14.5 | 0.00 | 0.00 | 0.00 | 70 | 1013.7 |
| 20260505072003 | 10 | 358 | 6.4 | 14.5 | 0.00 | 0.00 | 0.00 | 70 | 1013.5 |
| 20260505071003 | 10 | 11 | 6.4 | 17.7 | 0.00 | 0.00 | 0.00 | 71 | 1013.5 |
| 20260505070003 | 10 | 7 | 6.4 | 17.7 | 0.00 | 0.00 | 0.00 | 72 | 1013.5 |
| 20260505065217 | 10 | 9 | 4.8 | 12.9 | 0.00 | 0.00 | 0.00 | 75 | 1013.7 |
| 20260505064003 | 10 | 6 | 4.8 | 11.3 | 0.00 | 0.00 | 0.00 | 76 | 1013.6 |
| 20260505063003 | 10 | 6 | 3.2 | 6.4 | 0.00 | 0.00 | 0.00 | 78 | 1013.4 |
| 20260505062220 | 10 | 11 | 3.2 | 9.7 | 0.00 | 0.00 | 0.00 | 79 | 1013.6 |
| 20260505061003 | 10 | 11 | 4.8 | 11.3 | 0.00 | 0.00 | 0.00 | 79 | 1013.5 |
| 20260505060216 | 10 | 11 | 3.2 | 6.4 | 0.00 | 0.00 | 0.00 | 80 | 1013.4 |
| 20260505055003 | 10 | 9 | 3.2 | 6.4 | 0.00 | 0.00 | 0.00 | 80 | 1013.4 |
| 20260505054003 | 9 | 8 | 1.6 | 6.4 | 0.00 | 0.00 | 0.00 | 81 | 1013.8 |
| 20260505053219 | 9 | 8 | 1.6 | 3.2 | 0.00 | 0.00 | 0.00 | 82 | 1013.7 |
| 20260505052003 | 9 | 6 | 1.6 | 4.8 | 0.00 | 0.00 | 0.00 | 86 | 1013.6 |
| 20260505051003 | 9 | 3 | 0.0 | 1.6 | 0.00 | 0.00 | 0.00 | 88 | 1013.7 |
| 20260505041003 | 9 | 2 | 1.6 | 4.8 | 0.00 | 0.00 | 0.00 | 89 | 1013.4 |
| 20260505040003 | 8 | 6 | 3.2 | 6.4 | 0.00 | 0.00 | 0.00 | 90 | 1013.1 |
| 20260505035003 | 8 | 357 | 3.2 | 9.7 | 0.00 | 0.00 | 0.00 | 90 | 1013.2 |
| 20260505034003 | 8 | 355 | 4.8 | 11.3 | 0.00 | 0.00 | 0.00 | 91 | 1013.3 |
| 20260505033003 | 8 | 356 | 4.8 | 9.7 | 0.00 | 0.00 | 0.00 | 92 | 1013.2 |
| 20260505032003 | 8 | 358 | 1.6 | 6.4 | 0.00 | 0.00 | 0.00 | 92 | 1013.4 |
| 20260505031003 | 8 | 357 | 1.6 | 4.8 | 0.00 | 0.00 | 0.00 | 92 | 1013.7 |
| 20260505030218 | 8 | 357 | 1.6 | 1.6 | 0.00 | 0.00 | 0.00 | 92 | 1013.7 |
| 20260505025003 | 8 | 357 | 0.0 | 1.6 | 0.00 | 0.00 | 0.00 | 91 | 1013.7 |
| 20260505024003 | 8 | 357 | 0.0 | 1.6 | 0.00 | 0.00 | 0.00 | 91 | 1013.7 |
| 20260505023003 | 8 | 357 | 0.0 | 1.6 | 0.00 | 0.00 | 0.00 | 90 | 1013.6 |
| 20260505022003 | 8 | 354 | 0.0 | 1.6 | 0.00 | 0.00 | 0.00 | 89 | 1013.8 |
| 20260505021003 | 8 | 353 | 0.0 | 3.2 | 0.00 | 0.00 | 0.00 | 89 | 1013.8 |
| 20260505020003 | 8 | 354 | 0.0 | 1.6 | 0.00 | 0.00 | 0.00 | 89 | 1013.9 |
| 20260505015220 | 8 | 0 | 0.0 | 0.0 | 0.00 | 0.00 | 0.00 | 88 | 1013.7 |
| 20260505014221 | 8 | 0 | 0.0 | 0.0 | 0.00 | 0.00 | 0.00 | 88 | 1013.7 |
| 20260505013217 | 9 | 348 | 0.0 | 3.2 | 0.00 | 0.00 | 0.00 | 87 | 1014.0 |
| 20260505012003 | 9 | 347 | 1.6 | 3.2 | 0.00 | 0.00 | 0.00 | 87 | 1013.8 |
| 20260505011003 | 9 | 352 | 1.6 | 4.8 | 0.00 | 0.00 | 0.00 | 86 | 1013.7 |
| 20260505010220 | 9 | 357 | 3.2 | 6.4 | 0.00 | 0.00 | 0.00 | 86 | 1013.8 |
| 20260505005004 | 9 | 352 | 4.8 | 6.4 | 0.00 | 0.00 | 0.00 | 86 | 1013.6 |
| 20260505004003 | 9 | 347 | 3.2 | 6.4 | 0.00 | 0.00 | 0.00 | 86 | 1013.9 |
| 20260505003003 | 9 | 348 | 1.6 | 4.8 | 0.00 | 0.00 | 0.00 | 86 | 1014.0 |
| 20260505002003 | 10 | 348 | 1.6 | 4.8 | 0.00 | 0.00 | 0.00 | 86 | 1013.8 |
| 20260505001003 | 10 | 346 | 1.6 | 3.2 | 0.00 | 0.00 | 0.00 | 86 | 1014.2 |
| 20260505000003 | 10 | 352 | 1.6 | 3.2 | 0.00 | 0.00 | 0.00 | 85 | 1014.2 |
| 20260504235003 | 10 | 357 | 1.6 | 4.8 | 0.00 | 0.00 | 0.00 | 84 | 1014.4 |
| 20260504234003 | 10 | 4 | 1.6 | 4.8 | 0.00 | 0.00 | 0.00 | 84 | 1014.4 |
| 20260504233003 | 10 | 6 | 1.6 | 3.2 | 0.00 | 0.00 | 0.00 | 84 | 1014.3 |
| 20260504232003 | 11 | 4 | 1.6 | 6.4 | 0.00 | 0.00 | 0.00 | 84 | 1014.3 |
| 20260504231003 | 11 | 5 | 1.6 | 4.8 | 0.00 | 0.00 | 0.00 | 84 | 1014.1 |
| 20260504230003 | 11 | 6 | 1.6 | 4.8 | 0.00 | 0.00 | 0.00 | 84 | 1014.3 |
| 20260504225003 | 11 | 12 | 3.2 | 6.4 | 0.00 | 0.00 | 0.00 | 84 | 1014.2 |
| 20260504224003 | 11 | 15 | 3.2 | 9.7 | 0.00 | 0.00 | 0.00 | 83 | 1014.1 |
| 20260504223003 | 11 | 16 | 4.8 | 11.3 | 0.00 | 0.00 | 0.00 | 82 | 1014.2 |
| 20260504222003 | 11 | 15 | 4.8 | 9.7 | 0.00 | 0.00 | 0.00 | 82 | 1013.9 |
| 20260504221221 | 11 | 13 | 3.2 | 9.7 | 0.00 | 0.00 | 0.00 | 82 | 1014.1 |
| 20260504220003 | 11 | 6 | 3.2 | 6.4 | 0.00 | 0.00 | 0.00 | 82 | 1014.2 |
| 20260504215003 | 11 | 10 | 3.2 | 9.7 | 0.00 | 0.00 | 0.00 | 82 | 1014.1 |
| 20260504214003 | 11 | 10 | 3.2 | 6.4 | 0.00 | 0.00 | 0.00 | 82 | 1014.3 |
| 20260504213003 | 11 | 11 | 4.8 | 11.3 | 0.00 | 0.00 | 0.00 | 81 | 1014.1 |
| 20260504212003 | 11 | 10 | 3.2 | 9.7 | 0.00 | 0.00 | 0.00 | 82 | 1014.4 |
| 20260504211221 | 12 | 9 | 3.2 | 9.7 | 0.00 | 0.00 | 0.00 | 81 | 1014.2 |
| 20260504210003 | 12 | 11 | 3.2 | 9.7 | 0.00 | 0.00 | 0.00 | 80 | 1014.1 |
| 20260504205003 | 12 | 12 | 3.2 | 9.7 | 0.00 | 0.00 | 0.00 | 79 | 1014.3 |
| 20260504204219 | 12 | 12 | 3.2 | 6.4 | 0.00 | 0.00 | 0.00 | 80 | 1014.2 |
| 20260504203003 | 12 | 6 | 3.2 | 6.4 | 0.00 | 0.00 | 0.00 | 79 | 1014.2 |
| 20260504202003 | 12 | 4 | 3.2 | 4.8 | 0.00 | 0.00 | 0.00 | 79 | 1014.3 |
| 20260504201003 | 12 | 3 | 1.6 | 4.8 | 0.00 | 0.00 | 0.00 | 79 | 1014.1 |
| 20260504200218 | 12 | 7 | 3.2 | 4.8 | 0.00 | 0.00 | 0.00 | 80 | 1014.0 |
| 20260504195003 | 12 | 8 | 3.2 | 4.8 | 0.00 | 0.00 | 0.00 | 80 | 1013.9 |
| 20260504194003 | 13 | 9 | 3.2 | 4.8 | 0.00 | 0.00 | 0.00 | 80 | 1013.6 |
| 20260504193003 | 13 | 10 | 3.2 | 6.4 | 0.00 | 0.00 | 0.00 | 79 | 1013.6 |
| 20260504192216 | 13 | 11 | 3.2 | 6.4 | 0.00 | 0.00 | 0.00 | 78 | 1013.4 |
| 20260504191003 | 13 | 16 | 4.8 | 9.7 | 0.00 | 0.00 | 0.00 | 77 | 1013.5 |
| 20260504190003 | 14 | 17 | 4.8 | 9.7 | 0.00 | 0.00 | 0.00 | 77 | 1013.3 |